| time (UTC) | temp F | wind direction | speed MPH | gust MPH | rain 1hr in | rain 24hr in | rain mn in | humidity % | barometer mb |
| 20260508231101 | 60 | 200 | 3.0 | 4.0 | 0.00 | 0.00 | 0.00 | 68 | 1014.2 |
| 20260508230601 | 60 | 189 | 3.0 | 5.0 | 0.00 | 0.00 | 0.00 | 70 | 1014.2 |
| 20260508230101 | 60 | 186 | 3.0 | 5.0 | 0.00 | 0.00 | 0.00 | 70 | 1014.3 |
| 20260508225600 | 61 | 194 | 2.0 | 4.0 | 0.00 | 0.00 | 0.00 | 69 | 1014.2 |
| 20260508225320 | 61 | 195 | 2.0 | 4.0 | 0.00 | 0.00 | 0.00 | 67 | 1014.2 |
| 20260508224600 | 61 | 200 | 2.0 | 4.0 | 0.00 | 0.00 | 0.00 | 66 | 1014.1 |
| 20260508224101 | 61 | 192 | 2.0 | 4.0 | 0.00 | 0.00 | 0.00 | 67 | 1014.0 |
| 20260508223601 | 61 | 179 | 2.0 | 4.0 | 0.00 | 0.00 | 0.00 | 66 | 1014.2 |
| 20260508222601 | 61 | 220 | 2.0 | 4.0 | 0.00 | 0.00 | 0.00 | 67 | 1014.0 |
| 20260508222323 | 61 | 181 | 2.0 | 4.0 | 0.00 | 0.00 | 0.00 | 68 | 1014.2 |
| 20260508221819 | 62 | 187 | 2.0 | 4.0 | 0.00 | 0.00 | 0.00 | 67 | 1014.1 |
| 20260508221102 | 61 | 200 | 2.0 | 4.0 | 0.00 | 0.00 | 0.00 | 66 | 1014.1 |
| 20260508220602 | 62 | 198 | 2.0 | 4.0 | 0.00 | 0.00 | 0.00 | 70 | 1014.0 |
| 20260508215601 | 62 | 201 | 2.0 | 4.0 | 0.00 | 0.00 | 0.00 | 66 | 1014.1 |
| 20260508215101 | 62 | 187 | 3.0 | 4.0 | 0.00 | 0.00 | 0.00 | 66 | 1014.0 |
| 20260508214821 | 62 | 178 | 3.0 | 4.0 | 0.00 | 0.00 | 0.00 | 66 | 1014.0 |
| 20260508214101 | 62 | 191 | 3.0 | 5.0 | 0.00 | 0.00 | 0.00 | 64 | 1014.0 |
| 20260508213601 | 62 | 194 | 3.0 | 5.0 | 0.00 | 0.00 | 0.00 | 63 | 1013.8 |
| 20260508213100 | 62 | 184 | 3.0 | 6.0 | 0.00 | 0.00 | 0.00 | 63 | 1013.9 |
| 20260508212600 | 63 | 177 | 3.0 | 6.0 | 0.00 | 0.00 | 0.00 | 63 | 1013.9 |
| 20260508212322 | 63 | 259 | 3.0 | 5.0 | 0.00 | 0.00 | 0.00 | 62 | 1014.1 |
| 20260508211824 | 63 | 195 | 3.0 | 6.0 | 0.00 | 0.00 | 0.00 | 64 | 1014.2 |
| 20260508211101 | 63 | 185 | 3.0 | 6.0 | 0.00 | 0.00 | 0.00 | 62 | 1014.0 |
| 20260508210823 | 63 | 195 | 3.0 | 6.0 | 0.00 | 0.00 | 0.00 | 63 | 1014.2 |
| 20260508205819 | 63 | 198 | 3.0 | 6.0 | 0.00 | 0.00 | 0.00 | 63 | 1013.9 |
| 20260508205100 | 63 | 196 | 3.0 | 6.0 | 0.00 | 0.00 | 0.00 | 62 | 1014.0 |
| 20260508204818 | 63 | 194 | 3.0 | 6.0 | 0.00 | 0.00 | 0.00 | 62 | 1013.8 |
| 20260508203601 | 63 | 192 | 4.0 | 7.0 | 0.00 | 0.00 | 0.00 | 60 | 1013.9 |
| 20260508202601 | 63 | 190 | 4.0 | 5.0 | 0.00 | 0.00 | 0.00 | 62 | 1014.0 |
| 20260508202101 | 64 | 190 | 4.0 | 6.0 | 0.00 | 0.00 | 0.00 | 61 | 1014.0 |
| 20260508201601 | 64 | 165 | 4.0 | 6.0 | 0.00 | 0.00 | 0.00 | 60 | 1014.0 |
| 20260508201100 | 64 | 187 | 4.0 | 6.0 | 0.00 | 0.00 | 0.00 | 61 | 1014.1 |
| 20260508200601 | 64 | 183 | 4.0 | 7.0 | 0.00 | 0.00 | 0.00 | 58 | 1014.2 |
| 20260508200100 | 64 | 185 | 4.0 | 7.0 | 0.00 | 0.00 | 0.00 | 57 | 1014.2 |
| 20260508195600 | 64 | 183 | 3.0 | 6.0 | 0.00 | 0.00 | 0.00 | 59 | 1014.2 |
| 20260508195100 | 65 | 188 | 3.0 | 8.0 | 0.00 | 0.00 | 0.00 | 59 | 1014.2 |
| 20260508194826 | 65 | 117 | 2.0 | 8.0 | 0.00 | 0.00 | 0.00 | 61 | 1014.2 |
| 20260508194100 | 65 | 185 | 2.0 | 5.0 | 0.00 | 0.00 | 0.00 | 57 | 1014.1 |
| 20260508193601 | 65 | 129 | 3.0 | 6.0 | 0.00 | 0.00 | 0.00 | 56 | 1014.2 |
| 20260508193101 | 65 | 171 | 4.0 | 7.0 | 0.00 | 0.00 | 0.00 | 57 | 1014.5 |
| 20260508192601 | 65 | 187 | 4.0 | 7.0 | 0.00 | 0.00 | 0.00 | 56 | 1014.6 |
| 20260508192101 | 65 | 179 | 3.0 | 6.0 | 0.00 | 0.00 | 0.00 | 56 | 1014.9 |
| 20260508191601 | 65 | 196 | 3.0 | 6.0 | 0.00 | 0.00 | 0.00 | 56 | 1015.1 |
| 20260508190601 | 65 | 211 | 3.0 | 6.0 | 0.00 | 0.00 | 0.00 | 56 | 1015.3 |
| 20260508190319 | 65 | 127 | 3.0 | 6.0 | 0.00 | 0.00 | 0.00 | 57 | 1015.5 |
| 20260508185600 | 65 | 185 | 4.0 | 6.0 | 0.00 | 0.00 | 0.00 | 55 | 1016.0 |
| 20260508185317 | 65 | 217 | 4.0 | 8.0 | 0.00 | 0.00 | 0.00 | 55 | 1015.8 |
| 20260508184603 | 65 | 151 | 3.0 | 8.0 | 0.00 | 0.00 | 0.00 | 54 | 1015.8 |
| 20260508184103 | 65 | 181 | 3.0 | 6.0 | 0.00 | 0.00 | 0.00 | 56 | 1015.8 |
| 20260508183603 | 65 | 69 | 3.0 | 6.0 | 0.00 | 0.00 | 0.00 | 55 | 1015.6 |
| 20260508183103 | 65 | 133 | 4.0 | 6.0 | 0.00 | 0.00 | 0.00 | 55 | 1015.4 |
| 20260508182603 | 65 | 197 | 4.0 | 7.0 | 0.00 | 0.00 | 0.00 | 57 | 1015.8 |
| 20260508182326 | 65 | 182 | 4.0 | 7.0 | 0.00 | 0.00 | 0.00 | 56 | 1016.0 |
| 20260508181829 | 65 | 179 | 4.0 | 6.0 | 0.00 | 0.00 | 0.00 | 56 | 1016.4 |
| 20260508181102 | 64 | 184 | 4.0 | 6.0 | 0.00 | 0.00 | 0.00 | 58 | 1016.0 |
| 20260508175602 | 63 | 183 | 4.0 | 6.0 | 0.00 | 0.00 | 0.00 | 58 | 1015.8 |
| 20260508175103 | 63 | 210 | 3.0 | 5.0 | 0.00 | 0.00 | 0.00 | 57 | 1015.8 |
| 20260508174603 | 63 | 173 | 4.0 | 6.0 | 0.00 | 0.00 | 0.00 | 59 | 1016.0 |
| 20260508174103 | 63 | 195 | 4.0 | 6.0 | 0.00 | 0.00 | 0.00 | 58 | 1016.0 |
| 20260508173602 | 63 | 187 | 4.0 | 6.0 | 0.00 | 0.00 | 0.00 | 58 | 1015.7 |
| 20260508173328 | 63 | 192 | 3.0 | 5.0 | 0.00 | 0.00 | 0.00 | 58 | 1016.2 |
| 20260508172602 | 63 | 189 | 3.0 | 5.0 | 0.00 | 0.00 | 0.00 | 56 | 1016.7 |
| 20260508172102 | 63 | 191 | 3.0 | 4.0 | 0.00 | 0.00 | 0.00 | 56 | 1017.0 |
| 20260508171602 | 63 | 188 | 3.0 | 4.0 | 0.00 | 0.00 | 0.00 | 57 | 1016.9 |
| 20260508171102 | 64 | 191 | 3.0 | 4.0 | 0.00 | 0.00 | 0.00 | 56 | 1017.1 |
| 20260508170602 | 63 | 188 | 3.0 | 4.0 | 0.00 | 0.00 | 0.00 | 60 | 1016.7 |
| 20260508165602 | 62 | 190 | 3.0 | 6.0 | 0.00 | 0.00 | 0.00 | 57 | 1016.8 |
| 20260508165101 | 62 | 122 | 3.0 | 9.0 | 0.00 | 0.00 | 0.00 | 58 | 1016.9 |
| 20260508164603 | 62 | 154 | 3.0 | 9.0 | 0.00 | 0.00 | 0.00 | 58 | 1016.8 |
| 20260508164102 | 62 | 160 | 3.0 | 16.0 | 0.00 | 0.00 | 0.00 | 57 | 1016.8 |
| 20260508163602 | 62 | 149 | 7.0 | 16.0 | 0.00 | 0.00 | 0.00 | 58 | 1017.0 |
| 20260508163102 | 62 | 53 | 11.0 | 16.0 | 0.00 | 0.00 | 0.00 | 59 | 1017.2 |
| 20260508162827 | 62 | 62 | 11.0 | 16.0 | 0.00 | 0.00 | 0.00 | 60 | 1017.1 |
| 20260508162102 | 62 | 64 | 11.0 | 16.0 | 0.00 | 0.00 | 0.00 | 60 | 1017.2 |
| 20260508161102 | 62 | 55 | 11.0 | 16.0 | 0.00 | 0.00 | 0.00 | 60 | 1017.6 |
| 20260508160602 | 62 | 68 | 10.0 | 16.0 | 0.00 | 0.00 | 0.00 | 61 | 1017.5 |
| 20260508155602 | 62 | 48 | 6.0 | 11.0 | 0.00 | 0.00 | 0.00 | 61 | 1017.6 |
| 20260508155102 | 61 | 70 | 5.0 | 11.0 | 0.00 | 0.00 | 0.00 | 62 | 1017.5 |
| 20260508154102 | 60 | 121 | 4.0 | 7.0 | 0.00 | 0.00 | 0.00 | 63 | 1017.6 |
| 20260508153602 | 60 | 125 | 4.0 | 7.0 | 0.00 | 0.00 | 0.00 | 65 | 1017.8 |
| 20260508152819 | 60 | 190 | 4.0 | 8.0 | 0.00 | 0.00 | 0.00 | 64 | 1017.7 |
| 20260508152101 | 60 | 176 | 4.0 | 8.0 | 0.00 | 0.00 | 0.00 | 67 | 1017.8 |
| 20260508151602 | 59 | 179 | 4.0 | 8.0 | 0.00 | 0.00 | 0.00 | 69 | 1017.9 |
| 20260508151102 | 59 | 221 | 3.0 | 4.0 | 0.00 | 0.00 | 0.00 | 71 | 1017.8 |
| 20260508150602 | 59 | 179 | 3.0 | 4.0 | 0.00 | 0.00 | 0.00 | 68 | 1017.8 |
| 20260508150321 | 58 | 149 | 3.0 | 4.0 | 0.00 | 0.00 | 0.00 | 71 | 1017.9 |
| 20260508145601 | 58 | 181 | 3.0 | 4.0 | 0.00 | 0.00 | 0.00 | 74 | 1017.8 |
| 20260508145101 | 58 | 211 | 3.0 | 4.0 | 0.00 | 0.00 | 0.00 | 69 | 1017.8 |
| 20260508144102 | 57 | 181 | 1.0 | 3.0 | 0.00 | 0.00 | 0.00 | 79 | 1017.9 |
| 20260508143603 | 56 | 171 | 1.0 | 2.0 | 0.00 | 0.00 | 0.00 | 80 | 1017.9 |
| 20260508143103 | 55 | 180 | 1.0 | 2.0 | 0.00 | 0.00 | 0.00 | 82 | 1018.0 |
| 20260508142603 | 55 | 187 | 1.0 | 3.0 | 0.00 | 0.00 | 0.00 | 83 | 1018.1 |
| 20260508142102 | 54 | 158 | 2.0 | 3.0 | 0.00 | 0.00 | 0.00 | 84 | 1018.1 |
| 20260508135603 | 49 | 57 | 0.0 | 1.0 | 0.00 | 0.00 | 0.00 | 92 | 1018.3 |
| 20260508135102 | 49 | 165 | 1.0 | 2.0 | 0.00 | 0.00 | 0.00 | 94 | 1018.3 |
| 20260508134818 | 49 | 158 | 1.0 | 3.0 | 0.00 | 0.00 | 0.00 | 98 | 1018.3 |
| 20260508134103 | 48 | 152 | 1.0 | 3.0 | 0.00 | 0.00 | 0.00 | 99 | 1018.4 |
| 20260508133602 | 48 | 206 | 1.0 | 2.0 | 0.00 | 0.00 | 0.00 | 99 | 1018.4 |
| 20260508133102 | 47 | 173 | 1.0 | 2.0 | 0.00 | 0.00 | 0.00 | 99 | 1018.5 |
| 20260508132602 | 47 | 259 | 1.0 | 2.0 | 0.00 | 0.00 | 0.00 | 100 | 1018.5 |
| 20260508132102 | 47 | 182 | 0.0 | 2.0 | 0.00 | 0.00 | 0.00 | 100 | 1018.6 |
| 20260508131602 | 46 | 0 | 1.0 | 1.0 | 0.00 | 0.00 | 0.00 | 100 | 1018.6 |
| 20260508131323 | 46 | 307 | 1.0 | 2.0 | 0.00 | 0.00 | 0.00 | 100 | 1018.5 |
| 20260508130602 | 46 | 208 | 1.0 | 2.0 | 0.00 | 0.00 | 0.00 | 100 | 1018.5 |
| 20260508125602 | 45 | 265 | 0.0 | 1.0 | 0.00 | 0.01 | 0.00 | 99 | 1018.4 |
| 20260508125102 | 44 | 30 | 0.0 | 1.0 | 0.00 | 0.02 | 0.00 | 99 | 1018.3 |
| 20260508124602 | 44 | 288 | 0.0 | 2.0 | 0.00 | 0.03 | 0.00 | 99 | 1018.2 |
| 20260508124324 | 44 | 147 | 0.0 | 2.0 | 0.00 | 0.05 | 0.00 | 99 | 1018.2 |
| 20260508123602 | 44 | 218 | 0.0 | 1.0 | 0.00 | 0.05 | 0.00 | 99 | 1018.2 |
| 20260508122827 | 43 | 52 | 1.0 | 1.0 | 0.00 | 0.06 | 0.00 | 99 | 1018.1 |
| 20260508122322 | 43 | 214 | 1.0 | 2.0 | 0.00 | 0.06 | 0.00 | 99 | 1018.1 |
| 20260508121601 | 43 | 187 | 0.0 | 2.0 | 0.00 | 0.07 | 0.00 | 99 | 1017.9 |
| 20260508121102 | 43 | 166 | 0.0 | 1.0 | 0.00 | 0.10 | 0.00 | 99 | 1017.8 |
| 20260508120602 | 43 | 0 | 0.0 | 1.0 | 0.00 | 0.15 | 0.00 | 99 | 1017.7 |
| 20260508115822 | 42 | 0 | 0.0 | 2.0 | 0.00 | 0.18 | 0.00 | 99 | 1017.5 |
| 20260508115102 | 42 | 0 | 1.0 | 2.0 | 0.00 | 0.19 | 0.00 | 99 | 1017.5 |
| 20260508114601 | 42 | 257 | 1.0 | 2.0 | 0.00 | 0.20 | 0.00 | 99 | 1017.4 |
| 20260508114101 | 42 | 236 | 0.0 | 2.0 | 0.00 | 0.22 | 0.00 | 98 | 1017.4 |
| 20260508113601 | 42 | 270 | 0.0 | 1.0 | 0.00 | 0.26 | 0.00 | 98 | 1017.2 |
| 20260508113101 | 42 | 229 | 1.0 | 2.0 | 0.00 | 0.29 | 0.00 | 98 | 1017.2 |
| 20260508112602 | 42 | 221 | 1.0 | 2.0 | 0.00 | 0.30 | 0.00 | 98 | 1017.1 |
| 20260508112102 | 42 | 214 | 0.0 | 2.0 | 0.00 | 0.30 | 0.00 | 98 | 1017.0 |
| 20260508111602 | 42 | 0 | 0.0 | 1.0 | 0.00 | 0.31 | 0.00 | 98 | 1016.9 |
| 20260508111102 | 43 | 0 | 0.0 | 1.0 | 0.00 | 0.33 | 0.00 | 98 | 1016.8 |
| 20260508110602 | 43 | 254 | 0.0 | 1.0 | 0.00 | 0.34 | 0.00 | 98 | 1016.8 |
| 20260508105826 | 44 | 249 | 1.0 | 2.0 | 0.00 | 0.42 | 0.00 | 98 | 1016.5 |
| 20260508105103 | 44 | 355 | 1.0 | 2.0 | 0.00 | 0.46 | 0.00 | 98 | 1016.4 |
| 20260508104602 | 43 | 313 | 1.0 | 2.0 | 0.00 | 0.48 | 0.00 | 98 | 1016.3 |
| 20260508104319 | 43 | 258 | 1.0 | 2.0 | 0.00 | 0.50 | 0.00 | 98 | 1016.3 |
| 20260508103602 | 43 | 0 | 1.0 | 2.0 | 0.00 | 0.52 | 0.00 | 97 | 1016.2 |
| 20260508103102 | 43 | 260 | 1.0 | 2.0 | 0.00 | 0.53 | 0.00 | 97 | 1016.1 |
| 20260508102602 | 43 | 310 | 1.0 | 1.0 | 0.00 | 0.53 | 0.00 | 97 | 1016.1 |
| 20260508102326 | 43 | 294 | 1.0 | 1.0 | 0.00 | 0.53 | 0.00 | 97 | 1016.1 |
| 20260508101602 | 44 | 258 | 1.0 | 1.0 | 0.00 | 0.53 | 0.00 | 97 | 1016.0 |
| 20260508101103 | 44 | 287 | 1.0 | 1.0 | 0.00 | 0.57 | 0.00 | 96 | 1016.0 |
| 20260508100603 | 44 | 273 | 0.0 | 1.0 | 0.00 | 0.59 | 0.00 | 96 | 1016.0 |
| 20260508095824 | 45 | 0 | 0.0 | 1.0 | 0.00 | 0.66 | 0.00 | 97 | 1015.7 |
| 20260508095330 | 45 | 281 | 0.0 | 1.0 | 0.00 | 0.66 | 0.00 | 96 | 1015.7 |
| 20260508094602 | 45 | 0 | 1.0 | 1.0 | 0.00 | 0.66 | 0.00 | 96 | 1015.7 |
| 20260508094103 | 45 | 267 | 1.0 | 1.0 | 0.00 | 0.66 | 0.00 | 96 | 1015.6 |
| 20260508093602 | 46 | 278 | 0.0 | 1.0 | 0.00 | 0.66 | 0.00 | 96 | 1015.5 |
| 20260508093103 | 46 | 27 | 0.0 | 1.0 | 0.00 | 0.66 | 0.00 | 96 | 1015.4 |
| 20260508092828 | 46 | 274 | 0.0 | 1.0 | 0.00 | 0.66 | 0.00 | 96 | 1015.3 |
| 20260508092102 | 46 | 0 | 0.0 | 1.0 | 0.00 | 0.67 | 0.00 | 96 | 1015.3 |
| 20260508090603 | 46 | 342 | 1.0 | 2.0 | 0.00 | 0.67 | 0.00 | 96 | 1015.3 |
| 20260508085820 | 46 | 357 | 1.0 | 2.0 | 0.00 | 0.68 | 0.00 | 96 | 1015.4 |
| 20260508085102 | 47 | 291 | 1.0 | 2.0 | 0.00 | 0.68 | 0.00 | 95 | 1015.5 |
| 20260508084602 | 47 | 312 | 1.0 | 2.0 | 0.00 | 0.68 | 0.00 | 95 | 1015.4 |
| 20260508084102 | 47 | 357 | 1.0 | 2.0 | 0.00 | 0.68 | 0.00 | 96 | 1015.3 |
| 20260508083602 | 47 | 280 | 1.0 | 2.0 | 0.00 | 0.68 | 0.00 | 96 | 1015.3 |
| 20260508083103 | 47 | 280 | 1.0 | 2.0 | 0.00 | 0.68 | 0.00 | 96 | 1015.3 |
| 20260508082823 | 47 | 313 | 1.0 | 2.0 | 0.00 | 0.69 | 0.00 | 96 | 1015.3 |
| 20260508082102 | 47 | 0 | 0.0 | 1.0 | 0.00 | 0.69 | 0.00 | 96 | 1015.4 |
| 20260508081826 | 46 | 356 | 1.0 | 1.0 | 0.00 | 0.69 | 0.00 | 96 | 1015.4 |
| 20260508081102 | 46 | 20 | 0.0 | 1.0 | 0.00 | 0.69 | 0.00 | 96 | 1015.2 |
| 20260508080602 | 46 | 32 | 0.0 | 1.0 | 0.00 | 0.69 | 0.00 | 95 | 1015.2 |
| 20260508075602 | 46 | 275 | 0.0 | 1.0 | 0.00 | 0.72 | 0.00 | 95 | 1015.2 |
| 20260508075325 | 46 | 298 | 0.0 | 1.0 | 0.00 | 0.72 | 0.00 | 95 | 1015.2 |
| 20260508074830 | 46 | 0 | 0.0 | 1.0 | 0.00 | 0.72 | 0.00 | 95 | 1015.1 |
| 20260508074102 | 46 | 308 | 0.0 | 1.0 | 0.00 | 0.72 | 0.00 | 95 | 1015.1 |
| 20260508073101 | 47 | 272 | 1.0 | 1.0 | 0.00 | 0.73 | 0.00 | 94 | 1014.9 |
| 20260508072602 | 47 | 185 | 1.0 | 1.0 | 0.00 | 0.73 | 0.00 | 94 | 1015.0 |
| 20260508071326 | 47 | 0 | 1.0 | 1.0 | 0.00 | 0.76 | 0.00 | 93 | 1015.0 |
| 20260508070829 | 48 | 342 | 1.0 | 2.0 | 0.00 | 0.80 | 0.00 | 93 | 1015.0 |
| 20260508065602 | 48 | 327 | 1.0 | 2.0 | 0.00 | 0.84 | 0.00 | 93 | 1015.2 |
| 20260508065103 | 47 | 281 | 1.0 | 1.0 | 0.00 | 0.84 | 0.00 | 94 | 1015.2 |
| 20260508064828 | 48 | 289 | 1.0 | 1.0 | 0.00 | 0.84 | 0.00 | 94 | 1015.2 |
| 20260508063603 | 48 | 269 | 1.0 | 1.0 | 0.00 | 0.84 | 0.00 | 94 | 1015.0 |
| 20260508063102 | 48 | 274 | 0.0 | 1.0 | 0.00 | 0.85 | 0.00 | 94 | 1015.0 |
| 20260508062602 | 48 | 278 | 1.0 | 1.0 | 0.00 | 0.89 | 0.00 | 94 | 1014.9 |
| 20260508062102 | 48 | 266 | 1.0 | 2.0 | 0.00 | 0.91 | 0.00 | 94 | 1014.9 |
| 20260508061602 | 48 | 287 | 1.0 | 2.0 | 0.00 | 0.91 | 0.00 | 94 | 1015.0 |
| 20260508061102 | 48 | 272 | 0.0 | 1.0 | 0.00 | 0.91 | 0.00 | 94 | 1014.9 |
| 20260508060602 | 49 | 292 | 0.0 | 1.0 | 0.00 | 0.91 | 0.00 | 94 | 1015.0 |
| 20260508055602 | 49 | 82 | 1.0 | 2.0 | 0.00 | 0.91 | 0.00 | 94 | 1015.0 |
| 20260508054822 | 49 | 299 | 1.0 | 2.0 | 0.00 | 0.91 | 0.00 | 94 | 1015.0 |
| 20260508054327 | 49 | 148 | 0.0 | 2.0 | 0.00 | 0.92 | 0.00 | 94 | 1015.0 |
| 20260508053825 | 49 | 315 | 0.0 | 2.0 | 0.00 | 0.93 | 0.00 | 94 | 1015.1 |
| 20260508053102 | 49 | 295 | 1.0 | 3.0 | 0.00 | 0.95 | 0.00 | 94 | 1015.0 |
| 20260508052602 | 49 | 293 | 1.0 | 3.0 | 0.00 | 0.97 | 0.00 | 93 | 1015.1 |
| 20260508051602 | 50 | 0 | 1.0 | 2.0 | 0.00 | 1.03 | 0.00 | 93 | 1015.0 |
| 20260508051102 | 50 | 271 | 1.0 | 2.0 | 0.00 | 1.07 | 0.00 | 92 | 1015.0 |
| 20260508050602 | 50 | 342 | 1.0 | 2.0 | 0.00 | 1.10 | 0.00 | 92 | 1015.1 |
| 20260508045602 | 50 | 301 | 0.0 | 1.0 | 0.00 | 1.15 | 0.00 | 92 | 1015.1 |
| 20260508045101 | 50 | 253 | 0.0 | 1.0 | 0.00 | 1.16 | 0.00 | 92 | 1015.0 |
| 20260508044546 | 50 | 6 | 0.0 | 1.0 | 0.00 | 1.17 | 0.00 | 91 | 1014.9 |
| 20260508044031 | 50 | 227 | 0.0 | 1.0 | 0.00 | 1.20 | 0.00 | 91 | 1014.9 |
| 20260508043531 | 50 | 0 | 0.0 | 2.0 | 0.00 | 1.23 | 0.00 | 91 | 1014.9 |
| 20260508043032 | 51 | 0 | 1.0 | 2.0 | 0.00 | 1.25 | 0.00 | 90 | 1014.9 |
| 20260508042532 | 51 | 316 | 1.0 | 2.0 | 0.00 | 1.27 | 0.00 | 90 | 1015.1 |
| 20260508042032 | 51 | 300 | 1.0 | 2.0 | 0.00 | 1.31 | 0.00 | 90 | 1015.1 |
| 20260508041531 | 51 | 326 | 1.0 | 2.0 | 0.00 | 1.32 | 0.00 | 90 | 1014.9 |
| 20260508040530 | 51 | 342 | 1.0 | 2.0 | 0.00 | 1.35 | 0.00 | 90 | 1014.9 |
| 20260508040030 | 51 | 241 | 1.0 | 2.0 | 0.00 | 1.36 | 0.00 | 89 | 1014.9 |
| 20260508035530 | 51 | 280 | 1.0 | 2.0 | 0.00 | 1.36 | 1.36 | 89 | 1014.9 |
| 20260508035031 | 51 | 307 | 1.0 | 2.0 | 0.00 | 1.36 | 1.36 | 89 | 1014.9 |
| 20260508034531 | 51 | 339 | 1.0 | 1.0 | 0.00 | 1.36 | 1.36 | 89 | 1015.1 |
| 20260508034031 | 51 | 289 | 1.0 | 2.0 | 0.00 | 1.37 | 1.36 | 89 | 1014.9 |
| 20260508033529 | 51 | 315 | 1.0 | 2.0 | 0.00 | 1.37 | 1.36 | 89 | 1014.9 |
| 20260508033030 | 50 | 303 | 1.0 | 1.0 | 0.00 | 1.38 | 1.36 | 88 | 1015.0 |
| 20260508032749 | 51 | 6 | 0.0 | 1.0 | 0.00 | 1.40 | 1.36 | 88 | 1015.0 |
| 20260508032029 | 51 | 278 | 0.0 | 1.0 | 0.00 | 1.40 | 1.36 | 87 | 1014.9 |
| 20260508031529 | 51 | 10 | 0.0 | 1.0 | 0.00 | 1.40 | 1.36 | 88 | 1015.0 |
| 20260508031253 | 51 | 302 | 1.0 | 1.0 | 0.00 | 1.40 | 1.36 | 87 | 1014.9 |
| 20260508030529 | 51 | 352 | 1.0 | 1.0 | 0.00 | 1.40 | 1.36 | 86 | 1015.0 |
| 20260508030029 | 51 | 345 | 1.0 | 2.0 | 0.00 | 1.40 | 1.36 | 85 | 1015.0 |
| 20260508025529 | 51 | 285 | 1.0 | 2.0 | 0.00 | 1.40 | 1.36 | 85 | 1015.0 |
| 20260508025249 | 51 | 0 | 1.0 | 2.0 | 0.00 | 1.40 | 1.36 | 84 | 1014.9 |
| 20260508024530 | 51 | 333 | 1.0 | 2.0 | 0.00 | 1.40 | 1.36 | 84 | 1014.8 |
| 20260508024029 | 52 | 349 | 1.0 | 2.0 | 0.00 | 1.40 | 1.36 | 83 | 1014.8 |
| 20260508023529 | 52 | 310 | 1.0 | 1.0 | 0.00 | 1.40 | 1.36 | 83 | 1014.8 |
| 20260508023248 | 52 | 28 | 0.0 | 2.0 | 0.00 | 1.40 | 1.36 | 83 | 1014.8 |
| 20260508022529 | 52 | 3 | 0.0 | 2.0 | 0.00 | 1.40 | 1.36 | 83 | 1014.9 |
| 20260508022029 | 52 | 272 | 0.0 | 2.0 | 0.00 | 1.40 | 1.36 | 82 | 1014.8 |
| 20260508021529 | 52 | 335 | 0.0 | 2.0 | 0.00 | 1.40 | 1.36 | 82 | 1014.6 |
| 20260508021029 | 52 | 0 | 1.0 | 2.0 | 0.00 | 1.40 | 1.36 | 82 | 1014.6 |
| 20260508020529 | 52 | 338 | 1.0 | 2.0 | 0.00 | 1.40 | 1.36 | 83 | 1014.6 |
| 20260508020028 | 52 | 314 | 1.0 | 2.0 | 0.00 | 1.40 | 1.36 | 83 | 1014.6 |
| 20260508015529 | 52 | 336 | 1.0 | 2.0 | 0.00 | 1.40 | 1.36 | 84 | 1014.3 |
| 20260508014529 | 52 | 0 | 0.0 | 1.0 | 0.00 | 1.40 | 1.36 | 84 | 1014.1 |
| 20260508014245 | 53 | 295 | 0.0 | 2.0 | 0.00 | 1.40 | 1.36 | 84 | 1014.1 |
| 20260508013529 | 53 | 0 | 0.0 | 2.0 | 0.00 | 1.41 | 1.36 | 84 | 1014.1 |
| 20260508012529 | 53 | 345 | 0.0 | 1.0 | 0.00 | 1.42 | 1.36 | 85 | 1014.0 |
| 20260508012029 | 53 | 0 | 0.0 | 1.0 | 0.00 | 1.44 | 1.36 | 84 | 1013.9 |
| 20260508011529 | 53 | 255 | 0.0 | 1.0 | 0.00 | 1.46 | 1.36 | 85 | 1013.8 |
| 20260508011029 | 54 | 285 | 0.0 | 1.0 | 0.00 | 1.46 | 1.36 | 84 | 1013.7 |
| 20260508010751 | 54 | 259 | 0.0 | 1.0 | 0.00 | 1.46 | 1.36 | 83 | 1013.9 |
| 20260508010029 | 54 | 0 | 0.0 | 1.0 | 0.00 | 1.46 | 1.36 | 82 | 1014.0 |
| 20260508005747 | 54 | 312 | 0.0 | 1.0 | 0.00 | 1.47 | 1.36 | 82 | 1013.8 |
| 20260508005029 | 54 | 280 | 1.0 | 2.0 | 0.00 | 1.47 | 1.36 | 81 | 1013.6 |
| 20260508004528 | 54 | 291 | 1.0 | 2.0 | 0.00 | 1.47 | 1.36 | 82 | 1013.7 |
| 20260508004028 | 55 | 295 | 0.0 | 1.0 | 0.00 | 1.47 | 1.36 | 85 | 1013.7 |
| 20260508003528 | 55 | 326 | 0.0 | 2.0 | 0.00 | 1.47 | 1.36 | 85 | 1013.6 |
| 20260508003028 | 55 | 14 | 1.0 | 2.0 | 0.00 | 1.48 | 1.36 | 84 | 1013.7 |
| 20260508002749 | 55 | 332 | 1.0 | 2.0 | 0.00 | 1.50 | 1.36 | 84 | 1013.6 |
| 20260508002028 | 55 | 285 | 0.0 | 1.0 | 0.00 | 1.52 | 1.36 | 84 | 1013.5 |
| 20260508001528 | 55 | 353 | 0.0 | 1.0 | 0.00 | 1.56 | 1.36 | 85 | 1013.4 |
| 20260508001029 | 55 | 290 | 1.0 | 1.0 | 0.00 | 1.60 | 1.36 | 85 | 1013.2 |
| 20260508000529 | 55 | 303 | 1.0 | 1.0 | 0.00 | 1.65 | 1.36 | 85 | 1013.2 |
| 20260507235529 | 55 | 18 | 1.0 | 2.0 | 0.00 | 1.71 | 1.36 | 86 | 1013.2 |
| 20260507235030 | 55 | 7 | 1.0 | 2.0 | 0.00 | 1.72 | 1.36 | 87 | 1013.1 |
| 20260507234757 | 55 | 8 | 1.0 | 1.0 | 0.00 | 1.72 | 1.36 | 87 | 1012.8 |
| 20260507234246 | 56 | 344 | 1.0 | 1.0 | 0.00 | 1.73 | 1.36 | 86 | 1012.7 |
| 20260507233529 | 56 | 0 | 0.0 | 1.0 | 0.00 | 1.74 | 1.36 | 87 | 1012.7 |
| 20260507233030 | 56 | 0 | 0.0 | 1.0 | 0.00 | 1.78 | 1.36 | 87 | 1012.7 |
| 20260507232529 | 56 | 6 | 1.0 | 1.0 | 0.00 | 1.85 | 1.36 | 86 | 1012.7 |
| 20260507232029 | 56 | 62 | 1.0 | 1.0 | 0.00 | 1.96 | 1.36 | 86 | 1012.7 |
| 20260507231529 | 56 | 326 | 1.0 | 2.0 | 0.00 | 1.96 | 1.36 | 86 | 1012.6 |